Tracking 20239 objects as of 23-Jan-2020
HD Live streaming from Space Station
objects crossing your sky now

VCC C

Track VCC C now!
10-day predictions


NORAD ID: 44430
Int'l Code: 1998-067QQ
Perigee: 405.7 km
Apogee: 410.2 km
Inclination: 51.6 °
Period: 92.6 minutes
Semi major axis: 6778 km
RCS: Unknown
Launch date: November 20, 1998
Source: United States (US)
Launch site: TYURATAM MISSILE AND SPACE COMPLEX (TTMTR)
aabbcc
Your satellite tracking list
Your tracking list is empty




NASA's NSSDC Master Catalog

Two Line Element Set (TLE):
1 44430U 98067QQ  20023.28094940  .00012072  00000-0  18040-3 0  9996
2 44430  51.6416 345.7283 0003329 138.1190 222.0056 15.55460158 30574
Source of the keplerian elements: AFSPC